User: anonymous   Login
Location: *
(38.3914°N, 75.0697°W)
Time: 08:25:52
(UTC+00:00)
Language:

First-Move - Orbit

View from above orbital plane
View from above orbital plane
View from above satellite
View from above satellite

Ground track
Ground track

The orbit data is extracted from the following two-line orbital elements,

1 39439U 13066Z   21130.95852075  .00000507  00000-0  67454-4 0  9994
2 39439  97.5969 118.6038 0063095 282.5613  76.8549 14.82566262402391
Epoch (UTC): 10 May 2021 23:00:16
Eccentricity: 0.0063095
inclination: 97.5969°
perigee height: 577 km
apogee height: 665 km
right ascension of ascending node: 118.6038°
argument of perigee: 282.5613°
revolutions per day: 14.82566262
mean anomaly at epoch: 76.8549°
orbit number at epoch: 40239

The dashed part of the orbit path shows where the satellite is in the earth's shadow,  

DLR